This is the latest recevied weather packets stored in our database for station/object AE5HO. If no packets are shown the sender has not sent any weather packets the latest 10 day(s).
| Time | Temp. | Humidity | Pressure | Rain* | Wind** | Luminosity | Snow |
|---|---|---|---|---|---|---|---|
| 1787579911 | 31.67° C | 49% | 1014.8 hPa | 0 mm | - | 43 W/m² | - |
| 1787579606 | 31.11° C | 50% | 1014.8 hPa | 0 mm | - | 44 W/m² | - |
| 1787579301 | 31.11° C | 51% | 1015.2 hPa | 0 mm | - | 48 W/m² | - |
| 1787578996 | 31.11° C | 51% | 1014.9 hPa | 0 mm | - | 51 W/m² | - |
| 1787578693 | 31.11° C | 52% | 1015.1 hPa | 0 mm | - | 59 W/m² | - |
| 1787578393 | 30.56° C | 51% | 1015.1 hPa | 0 mm | - | 55 W/m² | - |
| 1787578092 | 30.56° C | 53% | 1015 hPa | 0 mm | - | 50 W/m² | - |
| 1787577787 | 30° C | 54% | 1014.8 hPa | 0 mm | - | 39 W/m² | - |
| 1787577483 | 30° C | 54% | 1015 hPa | 0 mm | - | 40 W/m² | - |
| 1787577179 | 30° C | 53% | 1014.9 hPa | 0 mm | - | 37 W/m² | - |
| 1787576876 | 30° C | 53% | 1014.8 hPa | 0 mm | - | 33 W/m² | - |
| 1787576576 | 30° C | 53% | 1014.7 hPa | 0 mm | - | 28 W/m² | - |
| 1787576272 | 30° C | 53% | 1014.7 hPa | 0 mm | - | 27 W/m² | - |
| 1787575967 | 30° C | 54% | 1014.7 hPa | 0 mm | - | 26 W/m² | - |
| 1787575662 | 30° C | 54% | 1014.6 hPa | 0 mm | - | 26 W/m² | - |
| 1787575358 | 30° C | 54% | 1014.5 hPa | 0 mm | - | 18 W/m² | - |
| 1787575053 | 30° C | 54% | 1014.6 hPa | 0 mm | - | 15 W/m² | - |
| 1787574753 | 30° C | 53% | 1014.5 hPa | 0 mm | - | 11 W/m² | - |
| 1787574448 | 30° C | 53% | 1014.1 hPa | 0 mm | - | 9 W/m² | - |
| 1787574147 | 29.44° C | 53% | 1014.3 hPa | 0 mm | - | 5 W/m² | - |
| 1787573842 | 29.44° C | 53% | 1014.2 hPa | 0 mm | - | 5 W/m² | - |
| 1787573541 | 29.44° C | 54% | 1014.3 hPa | 0 mm | - | 2 W/m² | - |
| 1787573238 | 29.44° C | 54% | 1014.2 hPa | 0 mm | - | 0 W/m² | - |
| 1787572934 | 29.44° C | 54% | 1014.2 hPa | 0 mm | - | 0 W/m² | - |
| 1787572630 | 29.44° C | 55% | 1014 hPa | 0 mm | - | 0 W/m² | - |
* Rain latest hour (hover to see other rain measurements)
** Current wind speed in m/s (hover to see current wind gust speed)